Year,Month,Day,Hour,Minute,Value (Times are PST for temperature in C)
2018,06,17,00,00,12.00
2018,06,17,00,01,12.00
2018,06,17,00,02,12.00
2018,06,17,00,03,11.90
2018,06,17,00,04,11.90
2018,06,17,00,05,11.90
2018,06,17,00,06,11.90
2018,06,17,00,07,11.90
2018,06,17,00,08,11.90
2018,06,17,00,09,11.90
2018,06,17,00,10,11.80
2018,06,17,00,11,11.80
2018,06,17,00,12,11.80
2018,06,17,00,13,11.80
2018,06,17,00,14,11.80
2018,06,17,00,15,11.80
2018,06,17,00,16,11.70
2018,06,17,00,17,11.70
2018,06,17,00,18,11.70
2018,06,17,00,19,11.70
2018,06,17,00,20,11.70
2018,06,17,00,21,11.60
2018,06,17,00,22,11.60
2018,06,17,00,23,11.60
2018,06,17,00,24,11.60
2018,06,17,00,25,11.50
2018,06,17,00,26,11.50
2018,06,17,00,27,11.50
2018,06,17,00,28,11.50
2018,06,17,00,29,11.50
2018,06,17,00,30,11.50
2018,06,17,00,31,11.50
2018,06,17,00,32,11.40
2018,06,17,00,33,11.40
2018,06,17,00,34,11.40
2018,06,17,00,35,11.40
2018,06,17,00,36,11.40
2018,06,17,00,37,11.40
2018,06,17,00,38,11.40
2018,06,17,00,39,11.40
2018,06,17,00,40,11.40
2018,06,17,00,41,11.40
2018,06,17,00,42,11.40
2018,06,17,00,43,11.40
2018,06,17,00,44,11.40
2018,06,17,00,45,11.40
2018,06,17,00,46,11.40
2018,06,17,00,47,11.40
2018,06,17,00,48,11.40
2018,06,17,00,49,11.40
2018,06,17,00,50,11.40
2018,06,17,00,51,11.40
2018,06,17,00,52,11.40
2018,06,17,00,53,11.40
2018,06,17,00,54,11.40
2018,06,17,00,55,11.40
2018,06,17,00,56,11.40
2018,06,17,00,57,11.40
2018,06,17,00,58,11.40
2018,06,17,00,59,11.40
2018,06,17,01,00,11.40
2018,06,17,01,01,11.40
2018,06,17,01,02,11.40
2018,06,17,01,03,11.40
2018,06,17,01,04,11.40
2018,06,17,01,05,11.40
2018,06,17,01,06,11.40
2018,06,17,01,07,11.30
2018,06,17,01,08,11.30
2018,06,17,01,09,11.30
2018,06,17,01,10,11.30
2018,06,17,01,11,11.30
2018,06,17,01,12,11.30
2018,06,17,01,13,11.30
2018,06,17,01,14,11.30
2018,06,17,01,15,11.40
2018,06,17,01,16,11.40
2018,06,17,01,17,11.40
2018,06,17,01,18,11.40
2018,06,17,01,19,11.40
2018,06,17,01,20,11.30
2018,06,17,01,21,11.30
2018,06,17,01,22,11.30
2018,06,17,01,23,11.30
2018,06,17,01,24,11.30
2018,06,17,01,25,11.30
2018,06,17,01,26,11.30
2018,06,17,01,27,11.30
2018,06,17,01,28,11.30
2018,06,17,01,29,11.30
2018,06,17,01,30,11.30
2018,06,17,01,31,11.30
2018,06,17,01,32,11.30
2018,06,17,01,33,11.30
2018,06,17,01,34,11.30
2018,06,17,01,35,11.30
2018,06,17,01,36,11.30
2018,06,17,01,37,11.30
2018,06,17,01,38,11.30
2018,06,17,01,39,11.30
2018,06,17,01,40,11.30
2018,06,17,01,41,11.30
2018,06,17,01,42,11.20
2018,06,17,01,43,11.20
2018,06,17,01,44,11.20
2018,06,17,01,45,11.20
2018,06,17,01,46,11.20
2018,06,17,01,47,11.20
2018,06,17,01,48,11.20
2018,06,17,01,49,11.20
2018,06,17,01,50,11.20
2018,06,17,01,51,11.10
2018,06,17,01,52,11.10
2018,06,17,01,53,11.10
2018,06,17,01,54,11.10
2018,06,17,01,55,11.10
2018,06,17,01,56,11.00
2018,06,17,01,57,11.00
2018,06,17,01,58,11.00
2018,06,17,01,59,11.00
2018,06,17,02,00,11.00
2018,06,17,02,01,11.00
2018,06,17,02,02,11.00
2018,06,17,02,03,10.90
2018,06,17,02,04,10.90
2018,06,17,02,05,10.90
2018,06,17,02,06,10.90
2018,06,17,02,07,10.90
2018,06,17,02,08,10.90
2018,06,17,02,09,10.90
2018,06,17,02,10,10.90
2018,06,17,02,11,10.90
2018,06,17,02,12,10.90
2018,06,17,02,13,10.90
2018,06,17,02,14,10.90
2018,06,17,02,15,10.90
2018,06,17,02,16,10.90
2018,06,17,02,17,10.90
2018,06,17,02,18,10.90
2018,06,17,02,19,10.90
2018,06,17,02,20,10.90
2018,06,17,02,21,10.90
2018,06,17,02,22,10.90
2018,06,17,02,23,10.80
2018,06,17,02,24,10.80
2018,06,17,02,25,10.80
2018,06,17,02,26,10.80
2018,06,17,02,27,10.80
2018,06,17,02,28,10.80
2018,06,17,02,29,10.80
2018,06,17,02,30,10.70
2018,06,17,02,31,10.70
2018,06,17,02,32,10.70
2018,06,17,02,33,10.70
2018,06,17,02,34,10.70
2018,06,17,02,35,10.70
2018,06,17,02,36,10.70
2018,06,17,02,37,10.70
2018,06,17,02,38,10.70
2018,06,17,02,39,10.70
2018,06,17,02,40,10.70
2018,06,17,02,41,10.70
2018,06,17,02,42,10.70
2018,06,17,02,43,10.70
2018,06,17,02,44,10.70
2018,06,17,02,45,10.70
2018,06,17,02,46,10.70
2018,06,17,02,47,10.70
2018,06,17,02,48,10.70
2018,06,17,02,49,10.70
2018,06,17,02,50,10.70
2018,06,17,02,51,10.70
2018,06,17,02,52,10.70
2018,06,17,02,53,10.70
2018,06,17,02,54,10.80
2018,06,17,02,55,10.80
2018,06,17,02,56,10.80
2018,06,17,02,57,10.80
2018,06,17,02,58,10.80
2018,06,17,02,59,10.80
2018,06,17,03,00,10.70
2018,06,17,03,01,10.70
2018,06,17,03,02,10.70
2018,06,17,03,03,10.80
2018,06,17,03,04,10.80
2018,06,17,03,05,10.80
2018,06,17,03,06,10.70
2018,06,17,03,07,10.70
2018,06,17,03,08,10.70
2018,06,17,03,09,10.70
2018,06,17,03,10,10.70
2018,06,17,03,11,10.70
2018,06,17,03,12,10.70
2018,06,17,03,13,10.70
2018,06,17,03,14,10.70
2018,06,17,03,15,10.70
2018,06,17,03,16,10.70
2018,06,17,03,17,10.70
2018,06,17,03,18,10.60
2018,06,17,03,19,10.60
2018,06,17,03,20,10.60
2018,06,17,03,21,10.60
2018,06,17,03,22,10.60
2018,06,17,03,23,10.60
2018,06,17,03,24,10.60
2018,06,17,03,25,10.50
2018,06,17,03,26,10.50
2018,06,17,03,27,10.50
2018,06,17,03,28,10.50
2018,06,17,03,29,10.50
2018,06,17,03,30,10.50
2018,06,17,03,31,10.40
2018,06,17,03,32,10.40
2018,06,17,03,33,10.40
2018,06,17,03,34,10.40
2018,06,17,03,35,10.40
2018,06,17,03,36,10.40
2018,06,17,03,37,10.40
2018,06,17,03,38,10.40
2018,06,17,03,39,10.30
2018,06,17,03,40,10.30
2018,06,17,03,41,10.30
2018,06,17,03,42,10.30
2018,06,17,03,43,10.30
2018,06,17,03,44,10.30
2018,06,17,03,45,10.30
2018,06,17,03,46,10.30
2018,06,17,03,47,10.30
2018,06,17,03,48,10.30
2018,06,17,03,49,10.30
2018,06,17,03,50,10.30
2018,06,17,03,51,10.30
2018,06,17,03,52,10.30
2018,06,17,03,53,10.30
2018,06,17,03,54,10.30
2018,06,17,03,55,10.30
2018,06,17,03,56,10.30
2018,06,17,03,57,10.30
2018,06,17,03,58,10.30
2018,06,17,03,59,10.30
2018,06,17,04,00,10.30
2018,06,17,04,01,10.30
2018,06,17,04,02,10.30
2018,06,17,04,03,10.30
2018,06,17,04,04,10.30
2018,06,17,04,05,10.30
2018,06,17,04,06,10.30
2018,06,17,04,07,10.30
2018,06,17,04,08,10.30
2018,06,17,04,09,10.20
2018,06,17,04,10,10.20
2018,06,17,04,11,10.20
2018,06,17,04,12,10.20
2018,06,17,04,13,10.20
2018,06,17,04,14,10.20
2018,06,17,04,15,10.20
2018,06,17,04,16,10.20
2018,06,17,04,17,10.20
2018,06,17,04,18,10.20
2018,06,17,04,19,10.30
2018,06,17,04,20,10.30
2018,06,17,04,21,10.30
2018,06,17,04,22,10.20
2018,06,17,04,23,10.20
2018,06,17,04,24,10.20
2018,06,17,04,25,10.20
2018,06,17,04,26,10.20
2018,06,17,04,27,10.20
2018,06,17,04,28,10.20
2018,06,17,04,29,10.20
2018,06,17,04,30,10.20
2018,06,17,04,31,10.20
2018,06,17,04,32,10.20
2018,06,17,04,33,10.20
2018,06,17,04,34,10.20
2018,06,17,04,35,10.20
2018,06,17,04,36,10.20
2018,06,17,04,37,10.20
2018,06,17,04,38,10.20
2018,06,17,04,39,10.20
2018,06,17,04,40,10.10
2018,06,17,04,41,10.10
2018,06,17,04,42,10.10
2018,06,17,04,43,10.10
2018,06,17,04,44,10.10
2018,06,17,04,45,10.10
2018,06,17,04,46,10.10
2018,06,17,04,47,10.10
2018,06,17,04,48,10.10
2018,06,17,04,49,10.10
2018,06,17,04,50,10.10
2018,06,17,04,51,10.10
2018,06,17,04,52,10.10
2018,06,17,04,53,10.10
2018,06,17,04,54,10.10
2018,06,17,04,55,10.10
2018,06,17,04,56,10.10
2018,06,17,04,57,10.10
2018,06,17,04,58,10.10
2018,06,17,04,59,10.10
2018,06,17,05,00,10.10
2018,06,17,05,01,10.00
2018,06,17,05,02,10.00
2018,06,17,05,03,10.00
2018,06,17,05,04,9.90
2018,06,17,05,05,9.90
2018,06,17,05,06,9.90
2018,06,17,05,07,9.90
2018,06,17,05,08,9.90
2018,06,17,05,09,9.90
2018,06,17,05,10,9.80
2018,06,17,05,11,9.80
2018,06,17,05,12,9.80
2018,06,17,05,13,9.80
2018,06,17,05,14,9.80
2018,06,17,05,15,9.80
2018,06,17,05,16,9.80
2018,06,17,05,17,9.80
2018,06,17,05,18,9.80
2018,06,17,05,19,9.80
2018,06,17,05,20,9.80
2018,06,17,05,21,9.80
2018,06,17,05,22,9.80
2018,06,17,05,23,9.80
2018,06,17,05,24,9.80
2018,06,17,05,25,9.80
2018,06,17,05,26,9.80
2018,06,17,05,27,9.80
2018,06,17,05,28,9.80
2018,06,17,05,29,9.80
2018,06,17,05,30,9.80
2018,06,17,05,31,9.80
2018,06,17,05,32,9.80
2018,06,17,05,33,9.80
2018,06,17,05,34,9.80
2018,06,17,05,35,9.80
2018,06,17,05,36,9.80
2018,06,17,05,37,9.90
2018,06,17,05,38,9.90
2018,06,17,05,39,9.90
2018,06,17,05,40,9.90
2018,06,17,05,41,9.90
2018,06,17,05,42,9.90
2018,06,17,05,43,9.90
2018,06,17,05,44,9.90
2018,06,17,05,45,9.90
2018,06,17,05,46,9.90
2018,06,17,05,47,9.90
2018,06,17,05,48,9.90
2018,06,17,05,49,9.90
2018,06,17,05,50,9.90
2018,06,17,05,51,9.90
2018,06,17,05,52,9.90
2018,06,17,05,53,9.90
2018,06,17,05,54,9.90
2018,06,17,05,55,9.90
2018,06,17,05,56,9.90
2018,06,17,05,57,10.00
2018,06,17,05,58,10.00
2018,06,17,05,59,10.00
2018,06,17,06,00,10.00
2018,06,17,06,01,10.00
2018,06,17,06,02,10.00
2018,06,17,06,03,10.00
2018,06,17,06,04,10.10
2018,06,17,06,05,10.10
2018,06,17,06,06,10.10
2018,06,17,06,07,10.10
2018,06,17,06,08,10.10
2018,06,17,06,09,10.10
2018,06,17,06,10,10.10
2018,06,17,06,11,10.10
2018,06,17,06,12,10.20
2018,06,17,06,13,10.20
2018,06,17,06,14,10.20
2018,06,17,06,15,10.20
2018,06,17,06,16,10.20
2018,06,17,06,17,10.30
2018,06,17,06,18,10.30
2018,06,17,06,19,10.30
2018,06,17,06,20,10.30
2018,06,17,06,21,10.30
2018,06,17,06,22,10.40
2018,06,17,06,23,10.40
2018,06,17,06,24,10.40
2018,06,17,06,25,10.50
2018,06,17,06,26,10.50
2018,06,17,06,27,10.60
2018,06,17,06,28,10.60
2018,06,17,06,29,10.60
2018,06,17,06,30,10.70
2018,06,17,06,31,10.70
2018,06,17,06,32,10.70
2018,06,17,06,33,10.80
2018,06,17,06,34,10.80
2018,06,17,06,35,10.90
2018,06,17,06,36,10.90
2018,06,17,06,37,11.00
2018,06,17,06,38,11.00
2018,06,17,06,39,11.10
2018,06,17,06,40,11.10
2018,06,17,06,41,11.20
2018,06,17,06,42,11.30
2018,06,17,06,43,11.30
2018,06,17,06,44,11.40
2018,06,17,06,45,11.50
2018,06,17,06,46,11.50
2018,06,17,06,47,11.70
2018,06,17,06,48,11.80
2018,06,17,06,49,11.90
2018,06,17,06,50,12.00
2018,06,17,06,51,12.10
2018,06,17,06,52,12.20
2018,06,17,06,53,12.30
2018,06,17,06,54,12.40
2018,06,17,06,55,12.40
2018,06,17,06,56,12.50
2018,06,17,06,57,12.50
2018,06,17,06,58,12.60
2018,06,17,06,59,12.70
2018,06,17,07,00,12.70
2018,06,17,07,01,12.80
2018,06,17,07,02,12.80
2018,06,17,07,03,12.80
2018,06,17,07,04,12.80
2018,06,17,07,05,12.90
2018,06,17,07,06,12.90
2018,06,17,07,07,12.80
2018,06,17,07,08,12.80
2018,06,17,07,09,12.80
2018,06,17,07,10,12.80
2018,06,17,07,11,12.80
2018,06,17,07,12,12.80
2018,06,17,07,13,12.80
2018,06,17,07,14,12.80
2018,06,17,07,15,12.80
2018,06,17,07,16,12.80
2018,06,17,07,17,12.80
2018,06,17,07,18,12.80
2018,06,17,07,19,12.80
2018,06,17,07,20,12.90
2018,06,17,07,21,12.90
2018,06,17,07,22,12.90
2018,06,17,07,23,13.00
2018,06,17,07,24,13.10
2018,06,17,07,25,13.10
2018,06,17,07,26,13.20
2018,06,17,07,27,13.30
2018,06,17,07,28,13.40
2018,06,17,07,29,13.50
2018,06,17,07,30,13.60
2018,06,17,07,31,13.70
2018,06,17,07,32,13.80
2018,06,17,07,33,13.80
2018,06,17,07,34,13.80
2018,06,17,07,35,13.90
2018,06,17,07,36,13.80
2018,06,17,07,37,13.80
2018,06,17,07,38,13.80
2018,06,17,07,39,13.70
2018,06,17,07,40,13.70
2018,06,17,07,41,13.60
2018,06,17,07,42,13.60
2018,06,17,07,43,13.50
2018,06,17,07,44,13.50
2018,06,17,07,45,13.50
2018,06,17,07,46,13.40
2018,06,17,07,47,13.40
2018,06,17,07,48,13.50
2018,06,17,07,49,13.60
2018,06,17,07,50,13.60
2018,06,17,07,51,13.70
2018,06,17,07,52,13.70
2018,06,17,07,53,13.80
2018,06,17,07,54,13.90
2018,06,17,07,55,13.90
2018,06,17,07,56,13.90
2018,06,17,07,57,14.00
2018,06,17,07,58,14.00
2018,06,17,07,59,14.00
2018,06,17,08,00,14.00
2018,06,17,08,01,14.00
2018,06,17,08,02,14.00
2018,06,17,08,03,14.00
2018,06,17,08,04,14.00
2018,06,17,08,05,13.90
2018,06,17,08,06,13.90
2018,06,17,08,07,13.90
2018,06,17,08,08,13.90
2018,06,17,08,09,13.90
2018,06,17,08,10,13.90
2018,06,17,08,11,13.90
2018,06,17,08,12,13.90
2018,06,17,08,13,13.90
2018,06,17,08,14,13.90
2018,06,17,08,15,14.00
2018,06,17,08,16,14.10
2018,06,17,08,17,14.10
2018,06,17,08,18,14.20
2018,06,17,08,19,14.20
2018,06,17,08,20,14.30
2018,06,17,08,21,14.30
2018,06,17,08,22,14.40
2018,06,17,08,23,14.40
2018,06,17,08,24,14.50
2018,06,17,08,25,14.50
2018,06,17,08,26,14.60
2018,06,17,08,27,14.70
2018,06,17,08,28,14.80
2018,06,17,08,29,14.80
2018,06,17,08,30,14.90
2018,06,17,08,31,14.90
2018,06,17,08,32,15.00
2018,06,17,08,33,15.10
2018,06,17,08,34,15.10
2018,06,17,08,35,15.20
2018,06,17,08,36,15.20
2018,06,17,08,37,15.30
2018,06,17,08,38,15.30
2018,06,17,08,39,15.30
2018,06,17,08,40,15.30
2018,06,17,08,41,15.30
2018,06,17,08,42,15.20
2018,06,17,08,43,15.20
2018,06,17,08,44,15.10
2018,06,17,08,45,15.10
2018,06,17,08,46,15.00
2018,06,17,08,47,15.00
2018,06,17,08,48,14.90
2018,06,17,08,49,14.90
2018,06,17,08,50,14.90
2018,06,17,08,51,14.90
2018,06,17,08,52,14.80
2018,06,17,08,53,14.80
2018,06,17,08,54,14.70
2018,06,17,08,55,14.60
2018,06,17,08,56,14.40
2018,06,17,08,57,14.40
2018,06,17,08,58,14.30
2018,06,17,08,59,14.30
2018,06,17,09,00,14.30
2018,06,17,09,01,14.30
2018,06,17,09,02,14.30
2018,06,17,09,03,14.30
2018,06,17,09,04,14.30
2018,06,17,09,05,14.30
2018,06,17,09,06,14.40
2018,06,17,09,07,14.40
2018,06,17,09,08,14.50
2018,06,17,09,09,14.60
2018,06,17,09,10,14.70
2018,06,17,09,11,14.80
2018,06,17,09,12,14.90
2018,06,17,09,13,15.00
2018,06,17,09,14,15.10
2018,06,17,09,15,15.20
2018,06,17,09,16,15.30
2018,06,17,09,17,15.30
2018,06,17,09,18,15.40
2018,06,17,09,19,15.40
2018,06,17,09,20,15.50
2018,06,17,09,21,15.50
2018,06,17,09,22,15.50
2018,06,17,09,23,15.40
2018,06,17,09,24,15.40
2018,06,17,09,25,15.40
2018,06,17,09,26,15.40
2018,06,17,09,27,15.40
2018,06,17,09,28,15.40
2018,06,17,09,29,15.40
2018,06,17,09,30,15.40
2018,06,17,09,31,15.50
2018,06,17,09,32,15.60
2018,06,17,09,33,15.60
2018,06,17,09,34,15.70
2018,06,17,09,35,15.70
2018,06,17,09,36,15.70
2018,06,17,09,37,15.70
2018,06,17,09,38,15.70
2018,06,17,09,39,15.70
2018,06,17,09,40,15.70
2018,06,17,09,41,15.60
2018,06,17,09,42,15.60
2018,06,17,09,43,15.50
2018,06,17,09,44,15.50
2018,06,17,09,45,15.40
2018,06,17,09,46,15.40
2018,06,17,09,47,15.40
2018,06,17,09,48,15.30
2018,06,17,09,49,15.30
2018,06,17,09,50,15.30
2018,06,17,09,51,15.30
2018,06,17,09,52,15.30
2018,06,17,09,53,15.40
2018,06,17,09,54,15.50
2018,06,17,09,55,15.60
2018,06,17,09,56,15.60
2018,06,17,09,57,15.70
2018,06,17,09,58,15.70
2018,06,17,09,59,15.60
2018,06,17,10,00,15.60
2018,06,17,10,01,15.60
2018,06,17,10,02,15.50
2018,06,17,10,03,15.40
2018,06,17,10,04,15.30
2018,06,17,10,05,15.30
2018,06,17,10,06,15.20
2018,06,17,10,07,15.10
2018,06,17,10,08,15.10
2018,06,17,10,09,15.10
2018,06,17,10,10,15.10
2018,06,17,10,11,15.10
2018,06,17,10,12,15.10
2018,06,17,10,13,15.10
2018,06,17,10,14,15.10
2018,06,17,10,15,15.10
2018,06,17,10,16,15.20
2018,06,17,10,17,15.10
2018,06,17,10,18,15.00
2018,06,17,10,19,14.90
2018,06,17,10,20,14.90
2018,06,17,10,21,14.80
2018,06,17,10,22,14.80
2018,06,17,10,23,14.80
2018,06,17,10,24,14.80
2018,06,17,10,25,14.70
2018,06,17,10,26,14.70
2018,06,17,10,27,14.70
2018,06,17,10,28,14.60
2018,06,17,10,29,14.60
2018,06,17,10,30,14.50
2018,06,17,10,31,14.50
2018,06,17,10,32,14.50
2018,06,17,10,33,14.60
2018,06,17,10,34,14.60
2018,06,17,10,35,14.60
2018,06,17,10,36,14.70
2018,06,17,10,37,14.70
2018,06,17,10,38,14.70
2018,06,17,10,39,14.70
2018,06,17,10,40,14.70
2018,06,17,10,41,14.70
2018,06,17,10,42,14.60
2018,06,17,10,43,14.60
2018,06,17,10,44,14.50
2018,06,17,10,45,14.40
2018,06,17,10,46,14.40
2018,06,17,10,47,14.40
2018,06,17,10,48,14.40
2018,06,17,10,49,14.40
2018,06,17,10,50,14.40
2018,06,17,10,51,14.40
2018,06,17,10,52,14.50
2018,06,17,10,53,14.50
2018,06,17,10,54,14.50
2018,06,17,10,55,14.60
2018,06,17,10,56,14.60
2018,06,17,10,57,14.60
2018,06,17,10,58,14.60
2018,06,17,10,59,14.50
2018,06,17,11,00,14.50
2018,06,17,11,01,14.50
2018,06,17,11,02,14.40
2018,06,17,11,03,14.40
2018,06,17,11,04,14.40
2018,06,17,11,05,14.40
2018,06,17,11,06,14.40
2018,06,17,11,07,14.40
2018,06,17,11,08,14.50
2018,06,17,11,09,14.50
2018,06,17,11,10,14.50
2018,06,17,11,11,14.50
2018,06,17,11,12,14.60
2018,06,17,11,13,14.60
2018,06,17,11,14,14.60
2018,06,17,11,15,14.60
2018,06,17,11,16,14.60
2018,06,17,11,17,14.60
2018,06,17,11,18,14.70
2018,06,17,11,19,14.70
2018,06,17,11,20,14.80
2018,06,17,11,21,14.80
2018,06,17,11,22,14.80
2018,06,17,11,23,14.90
2018,06,17,11,24,15.00
2018,06,17,11,25,15.10
2018,06,17,11,26,15.20
2018,06,17,11,27,15.30
2018,06,17,11,28,15.50
2018,06,17,11,29,15.50
2018,06,17,11,30,15.50
2018,06,17,11,31,15.50
2018,06,17,11,32,15.50
2018,06,17,11,33,15.60
2018,06,17,11,34,15.50
2018,06,17,11,35,15.50
2018,06,17,11,36,15.50
2018,06,17,11,37,15.60
2018,06,17,11,38,15.60
2018,06,17,11,39,15.70
2018,06,17,11,40,15.70
2018,06,17,11,41,15.80
2018,06,17,11,42,15.80
2018,06,17,11,43,15.80
2018,06,17,11,44,15.80
2018,06,17,11,45,15.80
2018,06,17,11,46,15.80
2018,06,17,11,47,15.80
2018,06,17,11,48,15.80
2018,06,17,11,49,15.70
2018,06,17,11,50,15.70
2018,06,17,11,51,15.70
2018,06,17,11,52,15.70
2018,06,17,11,53,15.70
2018,06,17,11,54,15.80
2018,06,17,11,55,15.80
2018,06,17,11,56,15.90
2018,06,17,11,57,15.90
2018,06,17,11,58,15.80
2018,06,17,11,59,15.80
2018,06,17,12,00,15.80
2018,06,17,12,01,15.80
2018,06,17,12,02,15.90
2018,06,17,12,03,16.00
2018,06,17,12,04,16.10
2018,06,17,12,05,16.10
2018,06,17,12,06,16.10
2018,06,17,12,07,16.20
2018,06,17,12,08,16.20
2018,06,17,12,09,16.20
2018,06,17,12,10,16.20
2018,06,17,12,11,16.30
2018,06,17,12,12,16.30
2018,06,17,12,13,16.40
2018,06,17,12,14,16.50
2018,06,17,12,15,16.60
2018,06,17,12,16,16.70
2018,06,17,12,17,16.70
2018,06,17,12,18,16.80
2018,06,17,12,19,16.80
2018,06,17,12,20,16.80
2018,06,17,12,21,16.90
2018,06,17,12,22,17.00
2018,06,17,12,23,17.10
2018,06,17,12,24,17.10
2018,06,17,12,25,17.20
2018,06,17,12,26,17.20
2018,06,17,12,27,17.20
2018,06,17,12,28,17.20
2018,06,17,12,29,17.20
2018,06,17,12,30,17.20
2018,06,17,12,31,17.20
2018,06,17,12,32,17.10
2018,06,17,12,33,17.10
2018,06,17,12,34,17.00
2018,06,17,12,35,17.00
2018,06,17,12,36,17.00
2018,06,17,12,37,17.00
2018,06,17,12,38,17.00
2018,06,17,12,39,17.00
2018,06,17,12,40,17.00
2018,06,17,12,41,17.00
2018,06,17,12,42,17.00
2018,06,17,12,43,17.10
2018,06,17,12,44,17.20
2018,06,17,12,45,17.20
2018,06,17,12,46,17.30
2018,06,17,12,47,17.30
2018,06,17,12,48,17.40
2018,06,17,12,49,17.40
2018,06,17,12,50,17.50
2018,06,17,12,51,17.50
2018,06,17,12,52,17.50
2018,06,17,12,53,17.40
2018,06,17,12,54,17.40
2018,06,17,12,55,17.40
2018,06,17,12,56,17.40
2018,06,17,12,57,17.40
2018,06,17,12,58,17.30
2018,06,17,12,59,17.20
2018,06,17,13,00,17.10
2018,06,17,13,01,17.10
2018,06,17,13,02,17.10
2018,06,17,13,03,17.10
2018,06,17,13,04,17.20
2018,06,17,13,05,17.30
2018,06,17,13,06,17.40
2018,06,17,13,07,17.40
2018,06,17,13,08,17.40
2018,06,17,13,09,17.50
2018,06,17,13,10,17.50
2018,06,17,13,11,17.50
2018,06,17,13,12,17.50
2018,06,17,13,13,17.60
2018,06,17,13,14,17.60
2018,06,17,13,15,17.70
2018,06,17,13,16,17.70
2018,06,17,13,17,17.80
2018,06,17,13,18,17.80
2018,06,17,13,19,17.90
2018,06,17,13,20,17.90
2018,06,17,13,21,17.90
2018,06,17,13,22,17.90
2018,06,17,13,23,17.90
2018,06,17,13,24,18.00
2018,06,17,13,25,18.10
2018,06,17,13,26,18.10
2018,06,17,13,27,18.10
2018,06,17,13,28,18.20
2018,06,17,13,29,18.20
2018,06,17,13,30,18.10
2018,06,17,13,31,18.10
2018,06,17,13,32,18.10
2018,06,17,13,33,18.00
2018,06,17,13,34,18.10
2018,06,17,13,35,18.10
2018,06,17,13,36,18.10
2018,06,17,13,37,18.10
2018,06,17,13,38,18.10
2018,06,17,13,39,18.10
2018,06,17,13,40,18.10
2018,06,17,13,41,18.10
2018,06,17,13,42,18.20
2018,06,17,13,43,18.20
2018,06,17,13,44,18.30
2018,06,17,13,45,18.20
2018,06,17,13,46,18.20
2018,06,17,13,47,18.10
2018,06,17,13,48,18.00
2018,06,17,13,49,18.00
2018,06,17,13,50,17.90
2018,06,17,13,51,17.90
2018,06,17,13,52,17.90
2018,06,17,13,53,17.90
2018,06,17,13,54,17.90
2018,06,17,13,55,18.00
2018,06,17,13,56,18.00
2018,06,17,13,57,17.90
2018,06,17,13,58,17.90
2018,06,17,13,59,17.90
2018,06,17,14,00,17.90
2018,06,17,14,01,17.90
2018,06,17,14,02,17.90
2018,06,17,14,03,17.80
2018,06,17,14,04,17.80
2018,06,17,14,05,17.80
2018,06,17,14,06,17.70
2018,06,17,14,07,17.70
2018,06,17,14,08,17.60
2018,06,17,14,09,17.60
2018,06,17,14,10,17.70
2018,06,17,14,11,17.70
2018,06,17,14,12,17.70
2018,06,17,14,13,17.80
2018,06,17,14,14,17.80
2018,06,17,14,15,17.90
2018,06,17,14,16,18.00
2018,06,17,14,17,18.00
2018,06,17,14,18,18.00
2018,06,17,14,19,17.90
2018,06,17,14,20,17.90
2018,06,17,14,21,17.90
2018,06,17,14,22,17.90
2018,06,17,14,23,17.80
2018,06,17,14,24,17.80
2018,06,17,14,25,17.70
2018,06,17,14,26,17.70
2018,06,17,14,27,17.70
2018,06,17,14,28,17.70
2018,06,17,14,29,17.80
2018,06,17,14,30,17.80
2018,06,17,14,31,17.80
2018,06,17,14,32,17.90
2018,06,17,14,33,17.90
2018,06,17,14,34,18.00
2018,06,17,14,35,18.00
2018,06,17,14,36,18.10
2018,06,17,14,37,18.20
2018,06,17,14,38,18.20
2018,06,17,14,39,18.30
2018,06,17,14,40,18.40
2018,06,17,14,41,18.50
2018,06,17,14,42,18.50
2018,06,17,14,43,18.50
2018,06,17,14,44,18.60
2018,06,17,14,45,18.70
2018,06,17,14,46,18.70
2018,06,17,14,47,18.60
2018,06,17,14,48,18.60
2018,06,17,14,49,18.60
2018,06,17,14,50,18.50
2018,06,17,14,51,18.50
2018,06,17,14,52,18.60
2018,06,17,14,53,18.60
2018,06,17,14,54,18.60
2018,06,17,14,55,18.70
2018,06,17,14,56,18.70
2018,06,17,14,57,18.80
2018,06,17,14,58,18.90
2018,06,17,14,59,19.00
2018,06,17,15,00,19.00
2018,06,17,15,01,19.10
2018,06,17,15,02,19.10
2018,06,17,15,03,19.20
2018,06,17,15,04,19.20
2018,06,17,15,05,19.20
2018,06,17,15,06,19.20
2018,06,17,15,07,19.20
2018,06,17,15,08,19.10
2018,06,17,15,09,19.10
2018,06,17,15,10,19.20
2018,06,17,15,11,19.20
2018,06,17,15,12,19.20
2018,06,17,15,13,19.20
2018,06,17,15,14,19.30
2018,06,17,15,15,19.30
2018,06,17,15,16,19.40
2018,06,17,15,17,19.40
2018,06,17,15,18,19.50
2018,06,17,15,19,19.60
2018,06,17,15,20,19.70
2018,06,17,15,21,19.80
2018,06,17,15,22,19.80
2018,06,17,15,23,19.80
2018,06,17,15,24,19.80
2018,06,17,15,25,19.90
2018,06,17,15,26,20.00
2018,06,17,15,27,20.00
2018,06,17,15,28,20.10
2018,06,17,15,29,20.10
2018,06,17,15,30,20.10
2018,06,17,15,31,20.20
2018,06,17,15,32,20.20
2018,06,17,15,33,20.30
2018,06,17,15,34,20.30
2018,06,17,15,35,20.30
2018,06,17,15,36,20.30
2018,06,17,15,37,20.40
2018,06,17,15,38,20.40
2018,06,17,15,39,20.50
2018,06,17,15,40,20.60
2018,06,17,15,41,20.70
2018,06,17,15,42,20.70
2018,06,17,15,43,20.70
2018,06,17,15,44,20.80
2018,06,17,15,45,20.80
2018,06,17,15,46,20.90
2018,06,17,15,47,21.00
2018,06,17,15,48,21.10
2018,06,17,15,49,21.10
2018,06,17,15,50,21.10
2018,06,17,15,51,21.20
2018,06,17,15,52,21.20
2018,06,17,15,53,21.20
2018,06,17,15,54,21.20
2018,06,17,15,55,21.30
2018,06,17,15,56,21.30
2018,06,17,15,57,21.30
2018,06,17,15,58,21.30
2018,06,17,15,59,21.30
2018,06,17,16,00,21.30
2018,06,17,16,01,21.40
2018,06,17,16,02,21.50
2018,06,17,16,03,21.50
2018,06,17,16,04,21.60
2018,06,17,16,05,21.70
2018,06,17,16,06,21.70
2018,06,17,16,07,21.80
2018,06,17,16,08,21.80
2018,06,17,16,09,21.90
2018,06,17,16,10,21.90
2018,06,17,16,11,22.00
2018,06,17,16,12,22.10
2018,06,17,16,13,22.20
2018,06,17,16,14,22.30
2018,06,17,16,15,22.40
2018,06,17,16,16,22.60
2018,06,17,16,17,22.70
2018,06,17,16,18,22.80
2018,06,17,16,19,22.90
2018,06,17,16,20,23.00
2018,06,17,16,21,23.00
2018,06,17,16,22,23.10
2018,06,17,16,23,23.20
2018,06,17,16,24,23.20
2018,06,17,16,25,23.20
2018,06,17,16,26,23.30
2018,06,17,16,27,23.30
2018,06,17,16,28,23.30
2018,06,17,16,29,23.40
2018,06,17,16,30,23.50
2018,06,17,16,31,23.50
2018,06,17,16,32,23.50
2018,06,17,16,33,23.60
2018,06,17,16,34,23.70
2018,06,17,16,35,23.70
2018,06,17,16,36,23.80
2018,06,17,16,37,23.80
2018,06,17,16,38,23.80
2018,06,17,16,39,23.80
2018,06,17,16,40,23.80
2018,06,17,16,41,23.80
2018,06,17,16,42,23.90
2018,06,17,16,43,23.90
2018,06,17,16,44,24.00
2018,06,17,16,45,24.00
2018,06,17,16,46,23.90
2018,06,17,16,47,23.90
2018,06,17,16,48,23.90
2018,06,17,16,49,23.90
2018,06,17,16,50,23.80
2018,06,17,16,51,23.80
2018,06,17,16,52,23.80
2018,06,17,16,53,23.80
2018,06,17,16,54,23.70
2018,06,17,16,55,23.70
2018,06,17,16,56,23.70
2018,06,17,16,57,23.70
2018,06,17,16,58,23.70
2018,06,17,16,59,23.70
2018,06,17,17,00,23.70
2018,06,17,17,01,23.60
2018,06,17,17,02,23.60
2018,06,17,17,03,23.60
2018,06,17,17,04,23.50
2018,06,17,17,05,23.50
2018,06,17,17,06,23.40
2018,06,17,17,07,23.40
2018,06,17,17,08,23.40
2018,06,17,17,09,23.40
2018,06,17,17,10,23.40
2018,06,17,17,11,23.30
2018,06,17,17,12,23.20
2018,06,17,17,13,23.20
2018,06,17,17,14,23.10
2018,06,17,17,15,23.10
2018,06,17,17,16,23.10
2018,06,17,17,17,23.00
2018,06,17,17,18,22.90
2018,06,17,17,19,22.80
2018,06,17,17,20,22.80
2018,06,17,17,21,22.60